Location: Unspecified
(0.0000°N, 0.0000°E)
Time: 12:12:42
(UTC+00:00)

Vanguard 2 - Pass Details

Date: 22 December 2018
Orbit: 553 x 2938 km, 32.9° (Epoch: 15 July)

Event Time Altitude Azimuth Distance (km) Brightness Sun altitude
Rises 06:06:53 0° 248° (WSW) 6,384 11.8 1.9°
Reaches altitude 10° 06:13:21 10° 231° (SW) 5,631 11.7 3.4°
Maximum altitude 06:23:58 18° 193° (SSW) 5,072 11.9 5.9°
Drops below altitude 10° 06:34:30 10° 155° (SSE) 5,540 12.8 8.3°
Sets 06:40:52 0° 138° (SE) 6,244 13.5 9.7°
